Regional Weather Roundup
Issued by NWS Newport/Morehead, NC

Current Version | Previous Version | Graphics & Text | Print | Product List | Glossary Off
Versions: 1 2 3 4 5 6 7 8 9 10 11 12 13 14 15 16 17 18 19 20 21 22 23 24 25 26 27 28 29 30 31 32 33 34 35 36 37 38 39 40 41 42 43 44 45 46 47 48 49 50

000
ASUS42 KMHX 081524
RWRMHX
WEATHER ROUNDUP FOR EASTERN NORTH CAROLINA
NATIONAL WEATHER SERVICE NEWPORT/MOREHEAD CITY NC
1000 AM EST THU DEC 08 2016

NOTE: "FAIR" INDICATES FEW OR NO CLOUDS BELOW 12,000 FEET
WITH NO SIGNIFICANT WEATHER AND/OR OBSTRUCTIONS TO VISIBILITY

NCZ015>017-031-032-045>047-102-103-081600-
NORTH COAST

CITY           SKY/WX    TMP DP  RH WIND       PRES   REMARKS
EDENTON        CLOUDY    55  49  80 CALM      30.06S
ELIZABETH CITY CLOUDY    50  46  86 SE5       30.05R
KITTY HAWK     CLOUDY    53  47  81 CALM      30.04R
MANTEO         CLOUDY    52  47  84 CALM      30.06R

$$

NCZ045>047-081-094-103-104-081600-
CENTRAL COAST

CITY           SKY/WX    TMP DP  RH WIND       PRES   REMARKS
FRISCO         NOT AVBL

$$

NCZ095-097-098-100-101-081600-
SOUTHERN COAST

CITY           SKY/WX    TMP DP  RH WIND       PRES   REMARKS
BEAUFORT       SUNNY     59  51  75 W13       30.06R
CEDAR ISLAND   NOT AVBL
JACKSONVILLE   CLOUDY    52  50  93 W8        30.08R FOG
PINEY ISLAND   NOT AVBL
WILMINGTON     CLOUDY    52  51  97 W9        30.10R


$$

NCZ011>013-027>030-043-044-078>080-089-090>093-098-081600-
COASTAL PLAIN

CITY           SKY/WX    TMP DP  RH WIND       PRES   REMARKS
AHOSKIE        CLOUDY    49  47  92 CALM      30.07R
CLINTON        CLOUDY    57  51  79 NW7G16    30.09R
ELIZABETHTOWN  MOSUNNY   56  49  79 W8        30.10R
GOLDSBORO      CLOUDY    54  54 100 W9        30.06R
GREENVILLE     CLOUDY    52  50  93 W8        30.09R
HAVELOCK       MOSUNNY   58  50  75 W12       30.08R
KENANSVILLE    NOT AVBL
KINSTON        CLOUDY    54  50  87 W5        30.09R FOG
NEW BERN       MOSUNNY   55  48  77 W9        30.08R
RICHLANDS      CLOUDY    54  50  87 W5        30.10R
ROCKY MOUNT    CLOUDY    51  48  89 NW10      30.09R
WASHINGTON     CLOUDY    54  49  84 SW9       30.07S
WHITEVILLE     CLOUDY    54  50  87 W7        30.11R

$$

AMZ130-135-150-152-154-156-158-170-250-252-270-ANZ085-086-088-633-658-670-081600-
MARINE OBSERVATIONS

STATION/POSITION TIME  TEMP    WIND        PRES    WAVE   SWELL
                       AIR SEA DIR/SP/G            HT/PER HT/PER
                 (UTC) (F)     (DEG/KT/KT) (MB)    (FT/S) (FT/S)
CHESAPEAKE LIGHT NOT AVBL
64 E VA BEACH    1450   53 59  230/  4/  8 1017.3    4/10   3/10
DUCK             1500   51 54  200/  5/  6 1017.1
2 E DUCK         NOT AVBL
OREGON INLET     1500          240/  3/  3 1017.6
13E OREGON INLT  NOT AVBL
HATTERAS CG      1500   57 60  150/  2/  3 1017.2
DIAMOND BUOY     1450   60 78  280/  6/  8 1017.7    4/10   5/10
CAPE LOOKOUT     1500   59     260/ 13/ 16 1017.8
BEAUFORT LAB     1500   57 55  260/  7/ 12 1017.0
30 SE NEW RVR IN 1408   56 69  270/ 14/ 17 1018.0
30 SE NEW RVR IN NOT AVBL
27 SE WRIGHTSVLE 1508   58 67  260/ 16/ 21 1018.7
5 SE WRIGHTSVLE  1508   52 62  280/ 12/ 17 1019.1
225 S CAPE HAT   1450   73 74  260/  8/ 10 1018.6    5/10   5/10
41 SE CHARLESTON 1450   65 74  290/ 12/ 16 1018.7    2/ 7   2/ 7

$$




USA.gov is the U.S. government's official web portal to all federal, state and local government web resources and services.